| time (UTC) | temp C | wind direction | speed KPH | gust KPH | rain 1hr cm | rain 24hr cm | rain mn cm | humidity % | barometer mb |
| 20260507160017 | 12 | 269 | 0.0 | 3.2 | 0.00 | 0.00 | 0.00 | 42 | |
| 20260507155036 | 12 | 277 | 1.6 | 6.4 | 0.00 | 0.00 | 0.00 | 42 | |
| 20260507154018 | 12 | 263 | 1.6 | 4.8 | 0.00 | 0.00 | 0.00 | 43 | |
| 20260507153017 | 12 | 267 | 1.6 | 6.4 | 0.00 | 0.00 | 0.00 | 43 | |
| 20260507152015 | 12 | 264 | 1.6 | 6.4 | 0.00 | 0.00 | 0.00 | 42 | |
| 20260507151017 | 12 | 263 | 0.0 | 4.8 | 0.00 | 0.00 | 0.00 | 43 | |
| 20260507150018 | 12 | 298 | 1.6 | 8.0 | 0.00 | 0.00 | 0.00 | 44 | |
| 20260507145016 | 12 | 278 | 0.0 | 1.6 | 0.00 | 0.00 | 0.00 | 42 | |
| 20260507144021 | 11 | 258 | 1.6 | 6.4 | 0.00 | 0.00 | 0.00 | 41 | |
| 20260507143017 | 11 | 258 | 1.6 | 4.8 | 0.00 | 0.00 | 0.00 | 45 | |
| 20260507142017 | 11 | 330 | 1.6 | 6.4 | 0.00 | 0.00 | 0.00 | 48 | |
| 20260507141037 | 11 | 303 | 1.6 | 6.4 | 0.00 | 0.00 | 0.00 | 48 | |
| 20260507140015 | 11 | 262 | 0.0 | 1.6 | 0.00 | 0.00 | 0.00 | 50 | |
| 20260507135015 | 11 | 269 | 0.0 | 3.2 | 0.00 | 0.00 | 0.00 | 50 | |
| 20260507134016 | 10 | 280 | 1.6 | 4.8 | 0.00 | 0.00 | 0.00 | 55 | |
| 20260507133016 | 10 | 315 | 0.0 | 3.2 | 0.00 | 0.00 | 0.00 | 58 | |
| 20260507132039 | 10 | 319 | 1.6 | 4.8 | 0.00 | 0.00 | 0.00 | 60 | |
| 20260507131017 | 9 | 324 | 1.6 | 4.8 | 0.00 | 0.00 | 0.00 | 64 | |
| 20260507130015 | 8 | 331 | 1.6 | 4.8 | 0.00 | 0.00 | 0.00 | 64 | |
| 20260507125015 | 8 | 316 | 0.0 | 1.6 | 0.00 | 0.00 | 0.00 | 72 | |
| 20260507124016 | 7 | 286 | 0.0 | 1.6 | 0.00 | 0.00 | 0.00 | 73 | |
| 20260507123016 | 7 | 285 | 0.0 | 1.6 | 0.00 | 0.00 | 0.00 | 74 | |
| 20260507122016 | 6 | 283 | 0.0 | 1.6 | 0.00 | 0.00 | 0.00 | 76 | |
| 20260507121017 | 6 | 0.0 | 0.0 | 0.00 | 0.00 | 0.00 | 77 | ||
| 20260507120017 | 5 | 0.0 | 0.0 | 0.00 | 0.00 | 0.00 | 80 | ||
| 20260507115017 | 5 | 0.0 | 0.0 | 0.00 | 0.00 | 0.00 | 83 | ||
| 20260507114015 | 5 | 0.0 | 0.0 | 0.00 | 0.00 | 0.00 | 84 | ||
| 20260507113016 | 5 | 0.0 | 0.0 | 0.00 | 0.00 | 0.00 | 85 | ||
| 20260507112018 | 4 | 0.0 | 0.0 | 0.00 | 0.00 | 0.00 | 86 | ||
| 20260507111016 | 4 | 0.0 | 0.0 | 0.00 | 0.00 | 0.00 | 86 | ||
| 20260507110038 | 4 | 0.0 | 0.0 | 0.00 | 0.00 | 0.00 | 86 | ||
| 20260507105017 | 4 | 0.0 | 0.0 | 0.00 | 0.00 | 0.00 | 86 | ||
| 20260507104017 | 5 | 0.0 | 0.0 | 0.00 | 0.00 | 0.00 | 85 | ||
| 20260507103017 | 5 | 0.0 | 0.0 | 0.00 | 0.00 | 0.00 | 86 | ||
| 20260507102015 | 5 | 0.0 | 0.0 | 0.00 | 0.00 | 0.00 | 86 | ||
| 20260507101017 | 5 | 0.0 | 0.0 | 0.00 | 0.00 | 0.00 | 86 | ||
| 20260507100036 | 5 | 0.0 | 0.0 | 0.00 | 0.00 | 0.00 | 86 | ||
| 20260507095018 | 5 | 0.0 | 0.0 | 0.00 | 0.00 | 0.00 | 86 | ||
| 20260507094020 | 5 | 0.0 | 0.0 | 0.00 | 0.00 | 0.00 | 85 | ||
| 20260507093015 | 5 | 0.0 | 0.0 | 0.00 | 0.00 | 0.00 | 85 | ||
| 20260507092018 | 5 | 0.0 | 0.0 | 0.00 | 0.00 | 0.00 | 85 | ||
| 20260507091016 | 6 | 0.0 | 0.0 | 0.00 | 0.00 | 0.00 | 85 | ||
| 20260507090016 | 6 | 0.0 | 0.0 | 0.00 | 0.00 | 0.00 | 85 | ||
| 20260507085036 | 6 | 0.0 | 0.0 | 0.00 | 0.00 | 0.00 | 85 | ||
| 20260507084016 | 6 | 0.0 | 0.0 | 0.00 | 0.00 | 0.00 | 86 | ||
| 20260507083017 | 6 | 0.0 | 0.0 | 0.00 | 0.00 | 0.00 | 87 | ||
| 20260507082015 | 6 | 0.0 | 0.0 | 0.00 | 0.00 | 0.00 | 89 | ||
| 20260507081015 | 5 | 0.0 | 0.0 | 0.00 | 0.00 | 0.00 | 89 | ||
| 20260507080016 | 5 | 0.0 | 0.0 | 0.00 | 0.00 | 0.00 | 88 | ||
| 20260507075016 | 5 | 0.0 | 0.0 | 0.00 | 0.03 | 0.00 | 87 | ||
| 20260507074019 | 5 | 0.0 | 0.0 | 0.00 | 0.03 | 0.00 | 86 | ||
| 20260507073017 | 6 | 0.0 | 0.0 | 0.00 | 0.03 | 0.00 | 86 | ||
| 20260507072017 | 6 | 0.0 | 0.0 | 0.00 | 0.05 | 0.00 | 86 | ||
| 20260507071015 | 6 | 0.0 | 0.0 | 0.00 | 0.10 | 0.00 | 86 | ||
| 20260507070057 | 6 | 0.0 | 0.0 | 0.00 | 0.15 | 0.00 | 85 | ||
| 20260507065017 | 7 | 0.0 | 0.0 | 0.00 | 0.18 | 0.00 | 84 | ||
| 20260507064016 | 7 | 0.0 | 0.0 | 0.00 | 0.23 | 0.00 | 84 | ||
| 20260507063016 | 7 | 0.0 | 0.0 | 0.00 | 0.25 | 0.00 | 84 | ||
| 20260507062037 | 7 | 0.0 | 0.0 | 0.00 | 0.30 | 0.00 | 83 | ||
| 20260507061018 | 7 | 0.0 | 0.0 | 0.00 | 0.33 | 0.00 | 83 | ||
| 20260507060015 | 7 | 0.0 | 0.0 | 0.00 | 0.33 | 0.00 | 83 | ||
| 20260507055037 | 7 | 0.0 | 0.0 | 0.00 | 0.38 | 0.00 | 82 | ||
| 20260507054016 | 7 | 0.0 | 0.0 | 0.00 | 0.41 | 0.00 | 81 | ||
| 20260507053016 | 8 | 0.0 | 0.0 | 0.00 | 0.46 | 0.00 | 80 | ||
| 20260507052016 | 8 | 0.0 | 0.0 | 0.00 | 0.53 | 0.00 | 79 | ||
| 20260507051037 | 8 | 0.0 | 0.0 | 0.00 | 0.56 | 0.00 | 79 | ||
| 20260507050017 | 8 | 0.0 | 0.0 | 0.00 | 0.61 | 0.00 | 79 | ||
| 20260507045015 | 8 | 0.0 | 0.0 | 0.00 | 0.74 | 0.00 | 81 | ||
| 20260507044015 | 7 | 0.0 | 0.0 | 0.00 | 0.76 | 0.00 | 80 | ||
| 20260507043035 | 7 | 0.0 | 0.0 | 0.00 | 0.81 | 0.00 | 79 | ||
| 20260507042036 | 8 | 0.0 | 0.0 | 0.00 | 0.84 | 0.00 | 79 | ||
| 20260507041016 | 8 | 0.0 | 0.0 | 0.00 | 0.86 | 0.00 | 80 | ||
| 20260507040016 | 8 | 0.0 | 0.0 | 0.00 | 0.91 | 0.00 | 78 | ||
| 20260507035019 | 8 | 0.0 | 0.0 | 0.00 | 0.91 | 0.91 | 78 | ||
| 20260507034015 | 8 | 0.0 | 0.0 | 0.00 | 0.91 | 0.91 | 77 | ||
| 20260507033015 | 8 | 0.0 | 0.0 | 0.00 | 0.97 | 0.91 | 77 | ||
| 20260507032036 | 8 | 0.0 | 0.0 | 0.00 | 0.99 | 0.91 | 77 | ||
| 20260507031016 | 8 | 0.0 | 0.0 | 0.00 | 0.99 | 0.91 | 78 | ||
| 20260507030016 | 8 | 0.0 | 0.0 | 0.00 | 0.99 | 0.91 | 78 | ||
| 20260507025019 | 8 | 0.0 | 0.0 | 0.00 | 0.99 | 0.91 | 77 | ||
| 20260507024017 | 8 | 0.0 | 0.0 | 0.00 | 0.99 | 0.91 | 75 | ||
| 20260507023015 | 9 | 0.0 | 0.0 | 0.00 | 1.02 | 0.91 | 74 | ||
| 20260507022015 | 9 | 0.0 | 0.0 | 0.00 | 1.02 | 0.91 | 74 | ||
| 20260507021015 | 9 | 0.0 | 0.0 | 0.00 | 1.02 | 0.91 | 73 | ||
| 20260507020018 | 9 | 0.0 | 0.0 | 0.00 | 1.02 | 0.91 | 71 | ||
| 20260507015016 | 10 | 0.0 | 0.0 | 0.00 | 1.04 | 0.91 | 71 | ||
| 20260507014017 | 10 | 0.0 | 0.0 | 0.00 | 1.04 | 0.91 | 70 | ||
| 20260507013037 | 10 | 0.0 | 0.0 | 0.00 | 1.07 | 0.91 | 69 | ||
| 20260507012016 | 10 | 0.0 | 0.0 | 0.00 | 1.07 | 0.91 | 67 | ||
| 20260507010016 | 11 | 0.0 | 0.0 | 0.00 | 1.14 | 0.91 | 66 | ||
| 20260507005018 | 12 | 0.0 | 0.0 | 0.00 | 1.24 | 0.91 | 64 | ||
| 20260507004016 | 12 | 0.0 | 0.0 | 0.00 | 1.37 | 0.91 | 63 | ||
| 20260507003038 | 12 | 0.0 | 0.0 | 0.00 | 1.37 | 0.91 | 62 | ||
| 20260507002015 | 12 | 320 | 0.0 | 1.6 | 0.00 | 1.37 | 0.91 | 61 | |
| 20260507001035 | 13 | 316 | 0.0 | 1.6 | 0.00 | 1.40 | 0.91 | 59 | |
| 20260507000015 | 13 | 307 | 0.0 | 3.2 | 0.00 | 1.40 | 0.91 | 59 | |
| 20260506235016 | 13 | 303 | 1.6 | 4.8 | 0.00 | 1.40 | 0.91 | 58 | |
| 20260506234016 | 13 | 321 | 0.0 | 3.2 | 0.00 | 1.40 | 0.91 | 57 | |
| 20260506233018 | 13 | 300 | 1.6 | 4.8 | 0.00 | 1.42 | 0.91 | 55 | |
| 20260506232017 | 14 | 330 | 1.6 | 11.3 | 0.00 | 1.42 | 0.91 | 53 | |
| 20260506231035 | 14 | 45 | 0.0 | 3.2 | 0.00 | 1.45 | 0.91 | 53 | |
| 20260506230036 | 15 | 321 | 1.6 | 9.7 | 0.00 | 1.47 | 0.91 | 53 | |
| 20260506225015 | 14 | 318 | 1.6 | 4.8 | 0.00 | 1.47 | 0.91 | 53 | |
| 20260506224058 | 14 | 307 | 0.0 | 4.8 | 0.00 | 1.47 | 0.91 | 53 | |
| 20260506223037 | 14 | 320 | 1.6 | 6.4 | 0.00 | 1.47 | 0.91 | 54 | |
| 20260506222016 | 14 | 4 | 0.0 | 1.6 | 0.00 | 1.47 | 0.91 | 55 | |
| 20260506221022 | 14 | 240 | 0.0 | 1.6 | 0.00 | 1.47 | 0.91 | 55 | |
| 20260506220035 | 14 | 318 | 1.6 | 6.4 | 0.00 | 1.47 | 0.91 | 54 | |
| 20260506215015 | 14 | 309 | 0.0 | 3.2 | 0.00 | 1.47 | 0.91 | 53 | |
| 20260506214018 | 14 | 334 | 0.0 | 3.2 | 0.00 | 1.47 | 0.91 | 53 | |
| 20260506213019 | 14 | 2 | 0.0 | 4.8 | 0.00 | 1.47 | 0.91 | 52 | |
| 20260506212016 | 14 | 297 | 0.0 | 3.2 | 0.00 | 1.47 | 0.91 | 52 | |
| 20260506211016 | 15 | 304 | 0.0 | 3.2 | 0.00 | 1.50 | 0.91 | 52 | |
| 20260506210017 | 15 | 51 | 0.0 | 3.2 | 0.00 | 1.50 | 0.91 | 52 | |
| 20260506205014 | 15 | 267 | 0.0 | 1.6 | 0.00 | 1.52 | 0.91 | 51 | |
| 20260506204015 | 14 | 270 | 0.0 | 1.6 | 0.00 | 1.55 | 0.91 | 51 | |
| 20260506203018 | 15 | 274 | 1.6 | 3.2 | 0.00 | 1.57 | 0.91 | 51 | |
| 20260506202017 | 14 | 321 | 0.0 | 3.2 | 0.00 | 1.63 | 0.91 | 53 | |
| 20260506201016 | 14 | 266 | 0.0 | 1.6 | 0.00 | 1.65 | 0.91 | 52 | |
| 20260506200037 | 14 | 323 | 1.6 | 6.4 | 0.00 | 1.70 | 0.91 | 53 | |
| 20260506195017 | 14 | 291 | 1.6 | 4.8 | 0.00 | 1.73 | 0.91 | 54 | |
| 20260506194015 | 14 | 266 | 0.0 | 3.2 | 0.00 | 1.75 | 0.91 | 54 | |
| 20260506193015 | 14 | 264 | 1.6 | 8.0 | 0.00 | 1.80 | 0.91 | 54 | |
| 20260506192016 | 15 | 316 | 1.6 | 9.7 | 0.00 | 1.85 | 0.91 | 54 | |
| 20260506191016 | 15 | 307 | 3.2 | 14.5 | 0.00 | 1.96 | 0.91 | 52 | |
| 20260506190018 | 15 | 295 | 0.0 | 4.8 | 0.00 | 2.03 | 0.91 | 53 | |
| 20260506185018 | 15 | 48 | 1.6 | 4.8 | 0.00 | 2.03 | 0.91 | 52 | |
| 20260506184017 | 16 | 260 | 0.0 | 3.2 | 0.00 | 2.03 | 0.91 | 49 | |
| 20260506183015 | 15 | 338 | 0.0 | 3.2 | 0.00 | 2.03 | 0.91 | 49 | |
| 20260506182015 | 15 | 305 | 0.0 | 6.4 | 0.00 | 2.03 | 0.91 | 53 | |
| 20260506181015 | 15 | 307 | 1.6 | 6.4 | 0.00 | 2.03 | 0.91 | 52 | |
| 20260506180017 | 15 | 2 | 1.6 | 8.0 | 0.00 | 2.03 | 0.91 | 54 | |
| 20260506175019 | 15 | 273 | 1.6 | 8.0 | 0.00 | 2.03 | 0.91 | 54 | |
| 20260506174018 | 15 | 304 | 0.0 | 4.8 | 0.00 | 2.03 | 0.91 | 53 | |
| 20260506173017 | 15 | 305 | 1.6 | 11.3 | 0.00 | 2.03 | 0.91 | 51 | |
| 20260506172037 | 15 | 338 | 1.6 | 6.4 | 0.00 | 2.03 | 0.91 | 54 | |
| 20260506171035 | 14 | 305 | 1.6 | 4.8 | 0.00 | 2.03 | 0.91 | 56 | |
| 20260506170016 | 13 | 357 | 1.6 | 8.0 | 0.00 | 2.03 | 0.91 | 56 | |
| 20260506165017 | 13 | 314 | 0.0 | 6.4 | 0.00 | 2.03 | 0.91 | 57 | |
| 20260506164016 | 13 | 308 | 1.6 | 8.0 | 0.00 | 2.03 | 0.91 | 56 | |
| 20260506163018 | 13 | 306 | 1.6 | 12.9 | 0.00 | 2.03 | 0.91 | 58 | |
| 20260506162014 | 13 | 305 | 1.6 | 8.0 | 0.00 | 2.03 | 0.91 | 58 | |
| 20260506161015 | 13 | 303 | 1.6 | 8.0 | 0.00 | 2.03 | 0.91 | 61 |